Overview Statistics Trail Chart Weather Telemetry Raw packets
 

This is the latest recevied weather packets stored in our database for station/object W7TRD. If no packets are shown the sender has not sent any weather packets the latest 10 day(s).

<< 36 37 38 39 40 41 42 >>
Time Temp. Humidity Pressure Rain* Wind** Luminosity Snow
1788373552 15° C 90% 1008.4 hPa 1.27 mm - 101 W/m² -
1788373248 15° C 89% 1008.6 hPa 0 mm - 81 W/m² -
1788372944 15° C 90% 1008.8 hPa 1.78 mm - 51 W/m² -
1788372643 15° C 91% 1008.5 hPa 3.05 mm - 87 W/m² -
1788372338 15.56° C 89% 1008.4 hPa 3.05 mm - 74 W/m² -
1788372034 15.56° C 86% 1008.5 hPa 3.05 mm - 81 W/m² -
1788371734 15.56° C 87% 1008.5 hPa 3.05 mm - 60 W/m² -
1788371430 16.11° C 84% 1008.1 hPa 3.05 mm - 80 W/m² -
1788371126 16.67° C 82% 1008.1 hPa 1.27 mm - 64 W/m² -
1788370849 16.67° C 82% 1008 hPa 0 mm - 58 W/m² -
1788370521 16.67° C 82% 1008.1 hPa 0 mm - 62 W/m² -
1788370221 16.67° C 80% 1007.9 hPa 0 mm - 61 W/m² -
1788369921 17.22° C 78% 1008 hPa 0 mm - 49 W/m² -
1788369616 17.22° C 75% 1007.7 hPa 0 mm - 73 W/m² -
1788369328 17.22° C 73% 1007.9 hPa 0 mm - 67 W/m² -
1788369008 17.22° C 73% 1007.9 hPa 0 mm - 85 W/m² -
1788368702 17.78° C 75% 1007.7 hPa 0 mm - 90 W/m² -
1788368398 17.78° C 72% 1008 hPa 0 mm - 99 W/m² -
1788368098 18.33° C 68% 1007.7 hPa 0 mm - 73 W/m² -
1788367798 18.33° C 68% 1007.7 hPa 0 mm - 98 W/m² -
1788367493 18.33° C 68% 1007.6 hPa 0 mm - 108 W/m² -
1788367192 17.78° C 68% 1007.5 hPa 0 mm - 102 W/m² -
1788366888 17.78° C 69% 1007.6 hPa 0 mm - 82 W/m² -
1788366585 17.78° C 71% 1007.6 hPa 0 mm - 67 W/m² -
1788366281 17.78° C 71% 1007.7 hPa 0 mm - 89 W/m² -

* Rain latest hour (hover to see other rain measurements)
** Current wind speed in m/s (hover to see current wind gust speed)